Regional Weather Roundup
Issued by NWS

Home | Current Version | Previous Version | Graphics & Text | Print | Product List | Glossary On
Versions: 1 2 3 4 5 6 7 8 9 10 11 12 13 14 15 16 17 18 19 20 21 22 23 24 25 26 27 28 29 30 31 32 33 34 35 36 37 38 39 40 41 42 43 44 45 46 47 48 49 50
000
ASUS45 KPSR 300210
RWRAZ

ARIZONA REGIONAL HOURLY WEATHER ROUNDUP
NATIONAL WEATHER SERVICE PHOENIX AZ
700 PM MST SUN MAR 29 2015

NOTE: FAIR INDICATES FEW OR NO CLOUDS BELOW 12,000 FEET WITH NO
SIGNIFICANT WEATHER AND/OR OBSTRUCTIONS TO VISIBILITY.

AZZ001>003-036-300300-
NORTHWEST ARIZONA

CITY           SKY/WX    TMP DP  RH WIND       PRES   REMARKS
BULLHEAD CITY  PTCLDY    90  19   7 CALM      29.90S
KINGMAN        PTCLDY    69  26  20 SW10      30.06S
$$

AZZ004>008-015-016-018-300300-
NORTH CENTRAL ARIZONA

CITY           SKY/WX    TMP DP  RH WIND       PRES   REMARKS
GRAND CANYON   MOCLDY    55  24  30 CALM      30.24R
WILLIAMS       MOCLDY    57  14  18 S7        30.31S
PRESCOTT       PTCLDY    66  19  16 W6        30.16R
FLAGSTAFF      PTCLDY    56  20  24 SW3       30.27R
PAYSON         CLEAR     68  16  13 W5        30.19S
PAGE           MOCLDY    72  22  15 E3        30.08S
$$

AZZ009>014-017-300300-
NORTHEAST ARIZONA

CITY           SKY/WX    TMP DP  RH WIND       PRES   REMARKS
WINSLOW        PTCLDY    69  17  13 SW10      30.14R
SAINT JOHNS    PTCLDY    67  12  12 SW13      30.17R
WINDOW ROCK    MOCLDY    60  21  22 N6        30.24R
SHOW LOW       PTCLDY    57  12  17 SW5       30.26S
$$

AZZ023-300300-
GREATER PHOENIX AREA

CITY           SKY/WX    TMP DP  RH WIND       PRES   REMARKS
PHOENIX        MOCLDY    92  17   6 NW8       29.91S
BUCKEYE        PTCLDY    86  23  10 NE3       29.92S
GLENDALE       PTCLDY    90  19   7 CALM      29.93S
DEER VALLEY    PTCLDY    86  15   7 CALM      29.94S
SCOTTSDALE     PTCLDY    88  18   7 CALM      29.96R
MESA-GATEWAY   PTCLDY    84  21  10 N5        29.96S
CHANDLER       MOCLDY    88  19   8 N6        29.93R
$$

AZZ027-028-300300-
SOUTHWEST MARICOPA COUNTY AND PINAL COUNTY

CITY           SKY/WX    TMP DP  RH WIND       PRES   REMARKS
CASA GRANDE    PTCLDY    86  25  10 CALM      29.93S
$$

AZZ503-504-507>509-300300-
SOUTHEAST ARIZONA

CITY           SKY/WX    TMP DP  RH WIND       PRES   REMARKS
TUCSON         MOCLDY    84  23  10 W6        30.04R
RYAN FIELD       N/A     82  30  15 W6        30.03R
NOGALES        CLOUDY    76  24  14 W5        30.12R
DOUGLAS        CLOUDY    73  24  16 SW6       30.12R
SAFFORD        PTCLDY    79  18  10 NW12      30.03R
$$

AZZ020-021-025-026-031-300300-
SOUTHWEST ARIZONA

CITY           SKY/WX    TMP DP  RH WIND       PRES   REMARKS
YUMA           MOCLDY    92  33  12 SW5       29.86S
$$

CAZ031-033-041-043-047-048-061-300300-
SOUTHERN CALIFORNIA

CITY           SKY/WX    TMP DP  RH WIND       PRES   REMARKS
DOWNTOWN L.A.  CLEAR     69  54  58 CALM      29.97R
L.A. AIRPORT   PTCLDY    62  57  83 W7        29.99R
SAN DIEGO      MOCLDY    66  57  72 NW3       30.00S
BURBANK        CLEAR     75  42  30 S6        29.97R
ONTARIO        CLEAR     76  44  32 W13       29.97R
RIVERSIDE      CLEAR     76  47  35 W9        29.97R
PALM SPRINGS   CLEAR     91  23   8 E7        29.89R
EL CENTRO NAS  MOCLDY    86  37  17 E6        29.85R
IMPERIAL       PTCLDY    88  42  20 E5        29.85R
BLYTHE         MOCLDY    91  31  11 CALM      29.87S
NEEDLES        PTCLDY    87  16   7 SE5       29.90S
$$

NVZ020-UTZ003-300300-
SOUTHERN NEVADA-UTAH

CITY           SKY/WX    TMP DP  RH WIND       PRES   REMARKS
LAS VEGAS      MOCLDY    86  17   8 SE3       29.93S
SALT LAKE CITY PTCLDY    60  22  23 NW9       30.19F
$$

NMZ009-TXZ055-300300-
NEW MEXICO-WEST TEXAS

CITY           SKY/WX    TMP DP  RH WIND       PRES   REMARKS
ALBUQUERQUE    CLOUDY    70  19  14 E20       30.14R
EL PASO        CLOUDY    81  11   7 W6        30.10R
$$


........................KEY........................
SKY/WX - SKY CONDITION/WEATHER
TMP    - TEMPERATURE IN FAHRENHEIT
DP     - DEW POINT IN FAHRENHEIT
RH     - RELATIVE HUMIDITY IN PERCENT
WIND   - DIRECTION AND SPEED IN MILES PER HOUR (MPH)
VRB    - VARIABLE WIND DIRECTION
PRES   - MEAN SEA LEVEL PRESSURE IN INCHES OF MERCURY
         F - FALLING PRESSURE   R - RISING PRESSURE
         S - STEADY PRESSURE
VSB    - VISIBILITY IN MILES
HX     - HEAT INDEX IN FAHRENHEIT
WCI    - WIND CHILL INDEX IN FAHRENHEIT
TC     - TEMPERATURE IN CELSIUS WHICH IS ALSO KNOWN AS
         TEMPERATURE IN CENTIGRADE
AFB    - AIR FORCE BASE
         LUKE AFB IS LUKE AIR FORCE BASE
         DAVIS-MONTHAN IS DAVIS-MONTHAN AIR FORCE BASE
NAS    - NAVAL AIR STATION
         EL CENTRO NAS IS EL CENTRO NAVAL AIR STATION
N/A    - NOT AVAILABLE




USA.gov is the U.S. government's official web portal to all federal, state and local government web resources and services.